Location: Elmsmere
(40.9284°N, 73.8207°W)
Time: 03:59:33
(UTC+00:00)

Cosmos 2360 - Pass Details

Date: 29 October 2020
Orbit: 848 x 854 km, 70.8° (Epoch: 29 November)

Event Time Altitude Azimuth Distance (km) Brightness Sun altitude
Rises 22:56:24 0° 185° (S) 3,408 7.5 -12.3°
Reaches altitude 10° 22:58:55 10° 180° (S) 2,476 6.7 -12.7°
Maximum altitude 23:04:22 48° 107° (ESE) 1,100 4.4 -13.8°
Drops below altitude 10° 23:09:50 10° 35° (NE) 2,489 6.3 -14.8°
Enters shadow 23:10:46 - 32° (NNE) 2,832 6.6 -15.0°
